Tracking 30970 objects as of 3-Jul-2025
HD Live streaming from Space Station
objects crossing your sky now

STARLINK-3963

Track STARLINK-3963 now!
10-day predictions
STARLINK-3963 is classified as:


NORAD ID: 52643
Int'l Code: 2022-052AX
Perigee: 546.0 km
Apogee: 547.8 km
Inclination: 53.2 °
Period: 95.4 minutes
Semi major axis: 6917 km
RCS: Unknown
Launch date: May 14, 2022
Source: United States (US)
Launch site: AIR FORCE EASTERN TEST RANGE (AFETR)
Your satellite tracking list
IRIDIUM 33 DEB
Track 1 satellite(s)




NASA's NSSDC Master Catalog

Two Line Element Set (TLE):
1 52643U 22052AX  25183.72377163  .00000468  00000-0  47471-4 0  9991
2 52643  53.2186 301.2339 0001265  86.5963 273.5174 15.08841766173397
Source of the keplerian elements: AFSPC